Greenwood, MS

5:16 PM CDT on September 26, 2017 (GMT -0500)
Greenwood-Leflore

Weather History for KGWO - December, 2013

Change the Weather History Date:

Monday, December 2, 2013

  Actual Average Record
Temperature  
Mean Temperature 56 °F 49 °F  
Max Temperature 62 °F 60 °F 83 °F (1982)
Min Temperature 49 °F 38 °F 21 °F (1960)
Degree Days  
Heating Degree Days 9 16  
Month to date heating degree days 28 32  
Since 1 July heating degree days 595 500  
Cooling Degree Days 0 0  
Month to date cooling degree days 0 0  
Year to date cooling degree days 2098 2159  
Growing Degree Days 5 (Base 50)    
Moisture  
Dew Point 52 °F    
Average Humidity 89    
Maximum Humidity 100    
Minimum Humidity 78    
Precipitation  
Precipitation 0.09 in 0.20 in 6.23 in (1983)
Month to date precipitation 0.09 0.40  
Year to date precipitation 53.79 46.52  
Sea Level Pressure  
Sea Level Pressure 29.80 in    
Wind  
Wind Speed 3 mph (SE)    
Max Wind Speed 9 mph    
Max Gust Speed 11 mph    
Visibility 5 miles    
Events Fog , Rain    
T = Trace of Precipitation, MM = Missing Value Source: NWS Daily Summary

Daily Weather History Graph

Daily Weather History Graph

Search for Another Location

Airport or City:

Trip Planner

Search our weather history database for the weather conditions in past years. The results will help you decide how hot, cold, wet, or windy it might be!

Date:

Astronomy

Dec. 02, 2013 Rise Set
Actual Time 6:47 AM CST 4:52 PM CST
Civil Twilight 6:20 AM CST 5:19 PM CST
Nautical Twilight 5:49 AM CST 5:50 PM CST
Astronomical Twilight 5:19 AM CST 6:20 PM CST
Moon 6:14 AM CST (12/2) 4:53 PM CST (12/2)
Length of Visible Light 10h 59m
Length of Day
10h 04m
Waning Crescent, 0% of the Moon is Illuminated
Dec 2
Waning Crescent
Dec 2
New
Dec 9
First Quarter
Dec 17
Full
Dec 25
Last Quarter

Hourly Weather History & Observations

Time (CST) Temp. Dew Point Humidity Pressure Visibility Wind Dir Wind Speed Gust Speed Precip Events Conditions
12:53 AM 53.1 °F 48.0 °F 83% 29.94 in 10.0 mi Calm Calm - N/A   Overcast
1:53 AM 52.0 °F 50.0 °F 93% 29.92 in 8.0 mi Calm Calm - 0.01 in   Overcast
2:53 AM 53.1 °F 51.1 °F 93% 29.90 in 10.0 mi SSW 5.8 mph - 0.01 in   Overcast
3:53 AM 54.0 °F 52.0 °F 93% 29.89 in 10.0 mi Calm Calm - N/A   Overcast
4:53 AM 54.0 °F 52.0 °F 93% 29.87 in 10.0 mi SSE 3.5 mph - 0.00 in Rain Light Rain
5:53 AM 54.0 °F 51.1 °F 90% 29.85 in 10.0 mi South 4.6 mph - 0.00 in   Overcast
6:30 AM 54.0 °F 51.1 °F 90% 29.86 in 4.0 mi Calm Calm - 0.02 in Rain Rain
6:38 AM 53.1 °F 51.1 °F 93% 29.86 in 5.0 mi Calm Calm - 0.03 in Rain Light Rain
6:53 AM 53.1 °F 52.0 °F 96% 29.86 in 4.0 mi Calm Calm - 0.06 in Rain Light Rain
7:15 AM 54.0 °F 52.0 °F 93% 29.86 in 9.0 mi SSE 3.5 mph - 0.00 in   Overcast
7:53 AM 54.0 °F 52.0 °F 93% 29.86 in 6.0 mi South 3.5 mph - 0.00 in   Overcast
8:53 AM 54.0 °F 53.1 °F 97% 29.86 in 7.0 mi South 3.5 mph - 0.00 in   Overcast
9:53 AM 55.9 °F 53.1 °F 90% 29.85 in 10.0 mi South 5.8 mph - N/A   Overcast
10:53 AM 57.9 °F 53.1 °F 84% 29.83 in 10.0 mi South 4.6 mph - N/A   Overcast
11:53 AM 60.1 °F 53.1 °F 78% 29.80 in 10.0 mi SW 6.9 mph - N/A   Overcast
12:53 PM 60.1 °F 54.0 °F 80% 29.77 in 10.0 mi SSW 8.1 mph - N/A   Overcast
1:17 PM 60.1 °F 54.0 °F 80% 29.76 in 10.0 mi SSW 6.9 mph - N/A   Overcast
1:53 PM 62.1 °F 55.0 °F 78% 29.75 in 10.0 mi South 3.5 mph - N/A   Overcast
2:11 PM 61.0 °F 54.0 °F 78% 29.75 in 10.0 mi South 8.1 mph - N/A   Overcast
2:53 PM 62.1 °F 55.0 °F 78% 29.74 in 10.0 mi South 6.9 mph - N/A   Overcast
3:53 PM 61.0 °F 55.9 °F 83% 29.74 in 9.0 mi Calm Calm - N/A   Overcast
4:53 PM 60.1 °F 55.9 °F 86% 29.74 in 9.0 mi Calm Calm - N/A   Overcast
5:40 PM 57.9 °F 55.0 °F 90% 29.75 in 8.0 mi Calm Calm - N/A   Overcast
5:53 PM 57.0 °F 55.0 °F 93% 29.75 in 8.0 mi Calm Calm - N/A   Overcast
6:48 PM 55.4 °F 53.6 °F 94% 29.75 in 6.0 mi Calm Calm - N/A   Mostly Cloudy
6:53 PM 55.9 °F 54.0 °F 93% 29.75 in 6.0 mi Calm Calm - N/A   Mostly Cloudy
7:38 PM 54.0 °F 53.1 °F 97% 29.76 in 2.5 mi Calm Calm - N/A   Mostly Cloudy
7:49 PM 51.8 °F 51.8 °F 100% 29.76 in 1.0 mi Calm Calm - N/A   Mostly Cloudy
7:53 PM 52.0 °F 51.1 °F 97% 29.76 in 1.0 mi Calm Calm - N/A   Mostly Cloudy
8:00 PM 53.1 °F 52.0 °F 96% 29.76 in 0.5 mi Calm Calm - N/A Fog Fog
8:07 PM 53.1 °F 52.0 °F 96% 29.76 in 0.2 mi Calm Calm - N/A Fog Fog
8:22 PM 53.1 °F 52.0 °F 96% 29.76 in 0.2 mi ENE 3.5 mph - N/A Fog Fog
8:29 PM 51.1 °F 51.1 °F 100% 29.76 in 0.5 mi ENE 3.5 mph - N/A Fog Fog
8:53 PM 52.0 °F 52.0 °F 100% 29.76 in 0.2 mi NNE 3.5 mph - N/A Fog Fog
9:31 PM 50.0 °F 50.0 °F 100% 29.77 in 1.0 mi ENE 4.6 mph - 0.00 in   Overcast
9:44 PM 50.0 °F 48.9 °F 96% 29.78 in 0.5 mi ENE 4.6 mph - 0.00 in Fog Fog
9:53 PM 50.0 °F 50.0 °F 100% 29.78 in 0.8 mi ENE 3.5 mph - 0.00 in   Mostly Cloudy
10:00 PM 51.1 °F 51.1 °F 100% 29.77 in 1.8 mi ENE 3.5 mph - N/A   Scattered Clouds
10:47 PM 50.0 °F 50.0 °F 100% 29.76 in 0.2 mi Calm Calm - 0.01 in Fog Fog
10:53 PM 50.0 °F 48.9 °F 96% 29.76 in 0.2 mi Calm Calm - 0.01 in Fog Fog
11:09 PM 48.9 °F 48.9 °F 100% 29.76 in 0.2 mi Calm Calm - N/A Fog Fog
11:50 PM 50.0 °F 50.0 °F 100% 29.75 in 0.5 mi ENE 3.5 mph - 0.00 in Fog Fog
11:53 PM 51.1 °F 50.0 °F 96% 29.75 in 0.5 mi Calm Calm - 0.00 in Fog Fog